Location: Shenandoah County Park
(38.9356°N, 78.4524°W)
Time: 06:25:20
(UTC-04:00)

Explorer 11/Cluster Stage 4 - Pass Details

Date: 02 March 2024
Orbit: 465 x 1220 km, 28.8° (Epoch: 12 April)

Event Time Altitude Azimuth Distance (km) Brightness Sun altitude
Rises 21:27:56 0° 221° (SW) 3,625 10.1 -38.7°
Enters shadow 21:28:56 - 217° (SW) 3,339 9.9 -38.8°
Reaches altitude 10° 21:31:00 10° 207° (SSW) 2,802 - -39.2°
Maximum altitude 21:36:21 24° 157° (SSE) 2,142 - -40.1°
Drops below altitude 10° 21:42:13 10° 108° (ESE) 3,113 - -41.1°
Sets 21:45:48 0° 96° (E) 4,121 - -41.7°
